sat.trackr.live / text

‹ back to catalog

STARLINK-35146

NORAD 65421 · 2025-192T

PAYLOAD ACTIVE UNKNOWN

§ Identity

Operator
Country
US
Launch date
2025-08-31
Launch site
AFETR
Launch vehicle
Mass (kg)
RCS (m²)

Purposes: comms

External: N2YO · Heavens-Above · Gunter

§ Orbital elements

Epoch: 2026-09-20T21:37:27.638112Z

Period
94.01 min
Inclination
53.1583°
Eccentricity
0.0001083
Mean motion
15.31714825 rev/d
Perigee alt
470.0 km
Apogee alt
471.4 km
Semi-major
6,848.8 km
B*
4.5809e-4
RAAN
44.0736°
Arg perigee
78.6611°
Mean anomaly
281.4513°
Rev number
5,928

§ Raw data

STARLINK-351461 65421U 25192T   26263.90101433  .00013883  00000+0  45809-3 0  99982 65421  53.1583  44.0736 0001083  78.6611 281.4513 15.31714825 59285

JSON: /api/v1/satellites/65421 · /tle

For live sub-satellite position, see the globe view (requires WebGL).

§ Visibility from observer

Set your observer location to see the next 7 days of passes ≥ 10°. The values pass through the URL so the page stays shareable.

No JS? Fill the form by hand. The geolocation button needs JavaScript.